Preview of NWS' New Version of Forecast
This preview is not operational and should not be used for support decisions.
Latest weather observations around

Missoula, Missoula International Airport (KMSO)

Using International System of Units (Switch to English Units)
Date/ Time (MDT) Wind (kph) Vis. (km) Weather Sky Cond. Temp (°C) Rel. Humidity Wind Chill (°C) Heat Index (°C) Pressure Precip. (cm)
Air Dwpt 6 hour Altimeter (hPa) Sea level (hPa) 1 hr 3 hr 6 hr
Max Min
Apr 19 11:53 5 16.09 Clear CLR 11 -4     36%     1019.3 1020.2      
Apr 19 10:53 Calm 16.09 Clear CLR 8 -3     46%     1019.7 1020.9      
Apr 19 09:53 W 5 16.09 Clear CLR 6 -3     55% 5   1020.3 1021.4      
Apr 19 07:53 W 5 16.09 Clear CLR 0 -3     78% -2   1020.3 1021.8      
Apr 19 06:53 N 5 16.09 Clear CLR -1 -5     72% -2   1020 1021.4      
Apr 19 05:53 Calm 16.09 Clear CLR -1 -5     72%     1020 1021.2      
Apr 19 04:53 Calm 16.09 Clear CLR 0 -5     69%     1020 1021.1      
Apr 19 03:53 Calm 16.09 Clear CLR 0 -5     69%     1019.3 1020.8      
Apr 19 02:53 NNW 5 16.09 Clear CLR 2 -4     64% 0   1019 1020.4      
Apr 19 01:53 Calm 16.09 Mostly Clear FEW100 4 -4     57%     1019.3 1020.3      
Apr 19 00:53 N 8 16.09 Mostly Clear FEW120 3 -4     59% 1   1019.3 1020.7      
Apr 18 22:53 WNW 11 16.09 Clear CLR 5 -4     53% 2   1019.7 1021.1      
Apr 18 21:53 N 9 16.09 Clear CLR 8 -6     38% 6   1019.3 1020.8      
Apr 18 20:53 NNE 21 16.09 Clear CLR 8 -6     37% 5   1019 1020.5      
Apr 18 19:53 N 21 16.09 Clear CLR 10 -5     34% 7   1018.6 1020.3      
Apr 18 18:53 WNW 9 16.09 Clear CLR 12 -7     25%     1018.6 1020.2      
Apr 18 17:53 Calm 16.09 Clear CLR 12 -7     25%     1019 1020.5      
Apr 18 16:53 5 16.09 Clear CLR 12 -6     28%     1019.7 1021.2      
Apr 18 15:53 E 8 16.09 Clear CLR 11 -6     29%     1020.3 1022      
Apr 18 14:53 Calm 16.09 Clear CLR 11 -6     32%     1021.7 1023.1      
Apr 18 12:53 Calm 16.09 Clear CLR 8 -6     37%     1022.7 1024.6      
Apr 18 11:53 ENE 9 16.09 Clear CLR 8 -4     43% 6   1023.7 1025.2      
Apr 18 10:53 Calm 16.09 Clear CLR 5 -3     55%     1024.1 1026.2      
Apr 18 09:53 Calm 16.09 Clear CLR 3 -3     64%     1024.4 1026.6      
Apr 18 08:53 Calm 16.09 Clear CLR 0 -3     81%     1024.7 1027.1      
Apr 18 07:53 Calm 16.09 Clear CLR 0 -3     78%     1024.7 1027      
Apr 18 06:53 Calm 16.09 Mostly Cloudy BKN055 -3 -6     81%     1024.7 1027.1      
Apr 18 05:53 Calm 16.09 Mostly Cloudy BKN060 -2 -5     78%     1024.1 1026.6      
Apr 18 04:53 Calm 16.09 Clear CLR -1 -4     75%     1024.1 1026      
Apr 18 03:53 Calm 16.09 Mostly Clear FEW060 -1 -4     78%     1023.4 1025.6      
Apr 18 02:53 SSE 8 16.09 Partly Cloudy SCT060 -1 -4     75% -3   1023.4 1025.6      
Apr 18 01:53 SE 8 16.09 Cloudy BKN055 OVC100 1 -4     69% -2   1023.7 1025.5      
Apr 18 00:53 Calm 16.09 Mostly Clear FEW095 0 -4     72%     1023 1024.9      
Apr 17 23:53 SSE 8 16.09 Clear CLR 2 -4     64% -1   1022.7 1024.4      
Apr 17 22:53 NE 8 16.09 Clear CLR 1 -5     64% -1   1022.4 1024.3      
Apr 17 21:53 SSW 5 16.09 Clear CLR 3 -6     52% 2   1022 1023.9      
Apr 17 20:53 W 17 16.09 Cloudy OVC065 5 -4     51% 2   1021.3 1023.2      
Apr 17 19:53 WSW 22 16.09 Cloudy OVC055 5 -5     48% 1   1020.7 1022.7      
Apr 17 18:53 WSW 28 16.09 Mostly Cloudy BKN060 6 -5     45% 2   1019.7 1021.6      
Apr 17 17:53 W 30 16.09 Partly Cloudy SCT055 6 -4     47% 2   1019 1020.8     0
Apr 17 16:53 W 28 16.09 Cloudy OVC055 7 -4     45% 2   1018.3 1019.9      
Apr 17 15:53 W 28 16.09 Cloudy OVC060 7 -4     44% 3   1016.9 1018.5      
Apr 17 14:53   16.09 Cloudy BKN060 OVC075 7 -4     44%     1015.9 1017.4 0 0  
Apr 17 13:53 W 28 16.09 Cloudy BKN055 OVC070 7 -4     45% 3   1015.2 1016.5 0    
Apr 17 12:53 W 26 16.09 Cloudy SCT055 BKN070 OVC100 7 -4     44% 3   1014.2 1015.7      
Apr 17 11:53 W 24 16.09 Mostly Cloudy BKN055 7 -4     45% 3   1013.9 1015.3      
Apr 17 10:53 SW 8 16.09 Cloudy OVC060 5 -4     53% 3   1013.2 1015      
Apr 17 09:53 SE 8 16.09 Cloudy BKN049 OVC060 4 -3     60% 3   1013.2 1014.7      
Apr 17 08:53 ESE 11 16.09 Mostly Cloudy FEW050 SCT070 BKN110 3 -2     70% 0   1012.5 1014.1      
Apr 17 07:53 ESE 8 16.09 Mostly Cloudy FEW090 BKN110 2 -2     75% -1   1012.2 1014      
Apr 17 06:53 Calm 16.09 Mostly Cloudy FEW050 BKN080 BKN100 1 -3     78%     1011.5 1013.3      
Apr 17 05:53 Calm 16.09 Cloudy FEW050 BKN055 OVC075 1 -2     82%     1011.2 1012.6      
Apr 17 04:53 S 5 16.09 Cloudy BKN055 OVC070 2 -3     72% 0   1010.2 1011.5      
Apr 17 03:53 ESE 8 16.09 Cloudy SCT050 OVC060 2 -3     70% 0   1009.8 1011.2      
Apr 17 02:53 Calm 16.09 Cloudy FEW046 BKN055 OVC075 2 -3     69%     1009.8 1011.1      
Apr 17 01:53 SSW 8 16.09 Cloudy OVC100 2 -4     64% 0   1009.8 1011.1      
Apr 17 00:53 Calm 16.09 Cloudy FEW050 OVC110 3 -3     64%     1009.8 1010.7      
Apr 16 23:53 Calm 16.09 Mostly Cloudy BKN060 BKN075 3 -2     70%     1009.5 1010.8     0
Apr 16 22:53 Calm 16.09 Partly Cloudy FEW048 FEW060 SCT110 3 -2     72%     1009.2 1010.3      
Apr 16 21:53 NNE 8 16.09 Mostly Cloudy BKN110 3 -2     67% 1   1008.8 1010      
Apr 16 20:53 Calm 16.09 Cloudy BKN090 OVC110 4 -3     60%     1008.1 1009.2   0  
Apr 16 19:53 W 24 16.09 Cloudy SCT065 OVC085 5 -3     55% 1   1007.8 1008.9 0    
Apr 16 18:53   16.09 Cloudy BKN065 OVC085 6 -2     55%     1006.4 1007.2      
Apr 16 17:53 W 8 16.09 Mostly Cloudy BKN110 8 -4     40% 7   1005.4 1006     0
Apr 16 16:53   16.09 Mostly Cloudy BKN100 8 -4     42%     1005.1 1005.6      
Apr 16 15:53 W 21 16.09 Cloudy SCT060 OVC100 7 -3     49% 4   1005.1 1005.6      
Apr 16 14:53   16.09 Cloudy FEW044 BKN080 OVC095 8 -1     53%     1004.4 1004.7 0 0  
Apr 16 14:09 WSW 13 16.09 Cloudy BKN036 BKN044 OVC055 8 2     65% 6   1003.4   0    
Apr 16 13:53 5 16.09 Light Rain BKN044 OVC050 9 1     58% 8   1002.7 1003.2 0    
Apr 16 12:53 NNE 11 16.09 Mostly Cloudy FEW050 BKN085 9 2     61% 7   1002.7 1003.1      
Jun 11 20:53   16.09 Clear   18 2     34%     1009.8 1009.3      
Jun 11 14:53 W 8 16.09 Clear CLR 18 -2     25%     1012.2 1012.4      
Jun 10 12:13 8 9.66 Light Rain FEW035 BKN043 OVC055 11 5     66%     1007.5   0    
Jun 10 08:53 S 11 16.09 Clear CLR 11 5     68%     1007.5 1007.1      
Jun 09 13:53 11 16.09 Light Rain FEW026 SCT037 BKN047 14 9     72%     1009.2 1008.7 0    
Jun 08 21:53   16.09 Mostly Clear FEW120 18 11     63%     1007.5 1005.9      
Jun 07 23:53 E 17 16.09 Clear CLR 21 12     57%     1010.5 1008.2      
Jun 07 09:53 Calm 16.09 Clear CLR 19 11     61%     1015.6 1013.8      
Jun 06 01:53 N 8 16.09 Clear CLR 8 5     80% 7   1021.7 1021.1